SCP
0 0 0 -0 0 -0 0 0 0 0 -0 -0 0 0 0 0 0 0 -0 -0 -0 -0 0 0 0 0 0 0 -0 0 1 1 3 6 2 1 0 0 0 0 0 0 0 0
0 0 0 -0 -0 0 0 0 0 0 0 0 0 0 0 0 0 0 0 0 0 0 0 0 0 0 0 0 0 0 1 2 4 4 1 0 0 0 0 0 0 0 0 0
0 -0 -0 0 0 0 0 0 0 0 0 0 0 0 0 0 0 0 -0 0 0 0 0 0 0 0 0 0 1 1 2 2 2 2 1 0 0 0 0 0 0 0 0 0
0 -0 0 0 0 0 0 0 0 0 0 0 0 0 0 0 0 0 -0 0 0 0 0 0 0 0 0 0 1 1 2 3 2 1 0 0 0 0 0 0 0 0 0 0
0 0 0 0 0 0 0 -0 0 0 0 0 0 -0 -0 0 -0 -0 0 0 0 0 0 0 0 0 0 1 2 1 2 2 1 0 0 0 0 0 0 0 0 0 0 0
0 0 0 0 0 0 0 0 0 0 0 -0 -0 0 -0 0 0 0 0 0 0 0 0 0 0 0 0 1 1 2 3 2 1 0 0 0 0 0 0 0 0 0 0 0
0 0 0 0 0 0 0 0 0 -0 -0 -0 0 0 -0 -0 -0 0 0 0 0 0 0 0 0 0 1 1 1 2 1 1 0 0 0 0 0 0 0 0 0 0 0 0
0 0 0 0 0 0 0 0 0 -0 -0 -0 -0 -0 -0 -0 -0 0 0 0 0 0 0 0 0 0 1 1 1 0 0 0 0 0 0 0 0 0 0 0 0 0 0 0
0 0 0 0 0 0 0 0 0 0 -0 -0 -0 -0 -0 0 0 0 0 0 0 0 0 0 0 0 0 0 0 0 0 0 0 0 0 0 0 0 0 0 0 0 0 0
0 0 0 0 0 0 0 0 0 0 -0 0 -0 -0 0 0 0 0 0 0 0 0 0 0 0 0 0 0 0 0 0 0 0 0 0 0 0 0 0 0 0 0 0 0
0 0 0 0 0 0 0 0 0 -0 -0 0 0 0 0 0 0 0 0 0 0 0 0 0 0 0 0 0 0 0 0 0 0 0 0 0 0 0 0 0 0 0 0 0
0 0 0 0 0 0 0 -0 -0 -0 -0 -0 0 0 0 0 0 0 0 0 0 0 0 0 0 0 0 0 0 0 0 0 0 0 0 0 0 0 0 0 0 0 0 0
0 0 0 0 0 0 0 0 -0 0 0 -0 -0 0 0 0 0 0 0 0 0 0 0 0 0 0 0 0 0 0 0 0 0 0 0 0 0 0 0 0 0 0 0 0
0 -0 -0 -0 0 0 0 0 0 -0 -0 -0 -0 0 0 0 0 0 0 0 0 0 0 0 0 0 0 0 0 0 0 0 0 0 0 0 0 0 0 0 0 0 0 0
-0 -0 -0 -0 0 0 0 0 -0 0 0 0 0 0 0 0 0 0 0 0 0 0 0 0 0 0 0 0 0 0 0 0 0 0 0 0 0 0 0 0 0 0 0 0
0 -0 -0 -0 0 0 0 -0 0 0 0 0 -0 -0 0 0 0 0 0 0 0 0 0 0 0 0 0 0 0 0 0 0 0 0 0 0 0 0 0 0 0 0 0 0
0 0 -0 0 0 -0 -0 -0 0 0 0 -0 -0 0 0 0 0 0 0 0 0 0 0 0 0 0 0 0 0 0 0 0 0 0 0 0 0 0 0 0 0 0 0 0
0 0 -0 0 0 -0 -0 0 0 -0 -0 0 -0 0 0 0 0 0 0 0 0 0 0 0 0 0 0 0 0 0 0 0 0 0 0 0 0 0 0 0 0 0 0 0
0 0 0 0 0 -0 -0 0 0 0 0 0 0 0 0 0 0 0 0 0 0 0 0 0 0 0 0 0 0 0 0 0 0 0 0 0 0 0 0 0 0 -0 -0 0
0 0 0 0 -0 0 -0 -0 0 0 0 0 0 0 0 0 0 0 0 0 0 0 0 0 0 0 0 0 0 0 0 0 0 0 0 0 0 0 0 0 -0 -0 0 -0
0 0 0 0 -0 0 0 0 0 0 0 0 0 0 0 0 0 0 0 0 0 0 0 0 0 0 0 0 0 0 0 0 0 0 0 0 0 -0 -0 -0 -0 -0 -0 -0
0 -0 0 0 -0 0 0 0 0 0 0 0 0 0 0 0 0 0 0 0 0 0 0 0 0 0 0 0 0 0 0 0 0 0 0 0 -0 -0 -0 -0 0 -0 0 -0
-0 -0 0 -0 -0 0 0 0 0 0 0 0 0 0 0 0 0 0 0 0 0 0 0 0 0 0 0 0 0 0 0 0 0 0 0 0 -0 -0 -0 -0 0 0 0 0
-0 -0 -0 -0 -0 -0 0 0 0 0 0 0 0 0 0 0 0 0 0 0 0 0 0 0 0 0 0 0 0 0 0 0 0 0 0 0 0 0 -0 -0 0 0 0 0
0 -0 -0 -0 0 -0 0 0 0 0 0 0 0 0 0 0 0 0 0 0 0 0 0 0 0 0 0 0 0 0 0 0 0 0 0 0 0 0 0 0 0 0 0 0
-0 0 -0 -0 -0 -0 -0 0 0 0 0 0 0 0 0 0 0 0 0 0 0 0 0 0 0 0 0 0 0 0 0 0 0 0 0 0 0 0 0 0 0 0 0 0
0 -0 0 -0 -0 -0 -0 -0 0 0 0 0 0 0 0 0 0 0 0 0 0 0 0 0 0 0 0 0 0 0 0 0 0 0 0 0 0 0 0 0 0 0 0 0
Wind_Speed_500mb
37 43 49 56 58 58 42 46 36 54 59 54 51 47 42 55 65 71 72 65 64 50 50 60 57 54 48 40 38 55 55 60 71 80 77 83 84 78 67 91 88 70 58 41
42 45 46 56 48 37 36 37 38 52 55 51 42 41 46 67 79 79 79 77 63 54 50 53 58 60 52 44 35 54 63 66 70 78 74 70 73 72 79 91 89 78 61 60
38 37 51 29 12 9 19 27 30 37 54 47 51 48 50 60 67 69 68 73 65 61 61 59 63 58 55 44 31 57 68 79 82 82 89 86 78 71 97 91 84 76 79 71
24 35 18 15 7 10 23 33 42 47 52 46 40 59 74 70 70 77 79 73 73 65 56 59 60 57 50 38 44 65 73 86 93 90 84 74 87 93 102 95 91 88 84 78
10 21 44 25 6 4 19 60 32 13 20 43 74 70 85 73 64 78 83 88 87 82 80 76 64 53 48 36 52 73 82 90 102 94 96 95 102 111 108 106 98 94 84 78
20 19 15 7 5 23 15 27 9 23 53 54 53 31 40 55 39 40 39 48 52 54 55 57 56 46 39 39 60 80 91 98 110 96 108 119 122 118 110 105 106 95 88 76
21 20 19 3 23 30 11 25 51 78 71 67 44 49 90 109 94 66 56 28 22 30 43 42 34 37 38 40 71 84 93 103 112 109 113 122 131 123 116 108 101 96 88 75
11 19 16 33 44 6 26 67 72 87 91 87 93 100 86 76 62 47 42 48 41 33 26 25 30 36 40 57 84 93 102 108 110 117 128 134 128 118 114 107 105 97 88 80
10 16 54 65 34 53 62 67 83 87 101 95 93 92 71 18 5 24 32 33 30 32 30 36 35 62 67 84 85 84 87 96 103 118 127 124 121 118 113 107 107 103 93 85
19 19 36 52 41 67 74 80 92 96 94 87 78 51 22 5 12 17 24 33 46 41 50 48 49 80 88 96 79 52 81 94 103 121 125 126 125 122 118 116 107 100 93 89
27 37 39 35 64 75 88 96 87 98 85 65 14 27 20 29 27 33 40 41 44 55 54 56 68 73 79 88 78 76 107 114 111 115 124 119 126 120 118 111 103 96 92 87
22 25 17 45 70 78 87 88 89 82 75 58 31 39 40 43 41 41 47 62 54 54 64 70 77 88 92 94 112 125 124 125 127 134 130 129 127 121 106 91 76 82 78 70
15 46 45 48 59 70 79 87 76 66 61 55 41 43 49 52 52 56 59 63 64 61 71 76 82 90 92 100 105 113 118 125 130 130 126 123 117 109 96 83 76 62 63 67
23 33 25 40 49 64 69 77 67 51 58 61 55 52 53 55 56 63 66 71 72 69 65 68 80 88 91 102 109 114 118 120 125 125 124 111 98 92 98 92 88 77 63 63
30 29 29 36 45 55 62 73 69 60 56 65 61 60 58 55 63 63 67 74 76 79 79 75 82 88 93 100 113 126 122 120 112 103 102 101 102 108 101 96 91 87 76 61
31 28 37 39 46 51 59 67 63 56 48 58 61 64 58 59 62 66 66 71 84 82 77 83 89 89 97 103 112 116 121 119 119 116 105 101 101 105 102 94 91 85 75 69
33 36 33 39 44 49 55 57 57 52 44 50 55 56 58 56 55 58 61 65 71 71 76 84 94 99 109 108 114 111 104 101 104 106 105 103 102 100 99 98 90 80 72 67
24 26 25 26 32 40 47 50 52 52 52 47 55 62 69 70 69 63 62 66 73 78 83 82 84 85 91 92 95 97 99 100 100 102 104 104 101 98 98 92 81 72 70 63
29 27 27 25 27 31 38 41 39 36 40 45 54 66 66 64 64 67 66 76 76 75 72 73 71 72 77 82 87 89 92 97 99 100 99 98 98 96 90 79 69 71 69 62
25 27 27 25 27 28 33 34 32 28 32 40 43 47 67 71 68 74 72 73 68 65 60 63 71 77 79 77 77 78 80 82 84 86 89 90 87 79 73 70 67 66 58 50
24 25 27 25 29 28 29 34 34 34 34 37 53 56 55 63 68 73 69 66 54 53 59 61 67 73 73 71 70 72 74 80 88 91 89 85 81 78 74 68 62 58 54 50
20 23 25 23 29 33 29 29 34 33 36 39 40 48 54 62 61 67 55 54 49 47 54 56 57 59 60 59 63 67 75 82 85 84 81 79 76 74 68 64 59 57 57 54
17 18 22 22 25 31 34 30 24 31 34 35 38 41 50 56 62 62 60 47 45 44 48 52 49 50 53 56 58 61 69 77 79 80 77 77 77 72 67 61 59 59 57 54
14 16 23 22 24 23 31 33 31 27 28 32 34 36 43 46 53 57 60 55 54 55 56 54 50 46 46 53 57 61 66 69 70 69 68 69 68 65 63 61 55 52 50 52
13 11 16 20 18 21 21 18 27 29 26 24 24 28 32 40 52 49 49 51 47 48 48 46 44 44 47 49 52 56 56 55 55 57 60 63 62 59 57 55 53 51 50 47
13 12 13 15 16 19 18 21 27 24 27 23 24 18 23 29 33 33 33 34 35 41 42 42 42 42 43 43 43 43 45 45 46 49 53 61 59 58 56 53 51 49 47 46
15 14 10 10 9 12 16 15 25 28 21 26 26 23 22 25 26 24 25 31 30 39 40 36 38 37 37 39 40 41 42 40 40 43 48 53 52 51 50 48 46 45 44 44
Wind_Direction_500mb
271 282 288 280 281 287 277 268 264 276 279 283 283 284 283 282 284 283 281 279 280 277 276 281 269 270 276 280 248 214 205 200 192 198 189 198 202 202 186 180 173 167 147 142
288 289 288 291 287 282 275 278 273 271 274 277 291 295 278 278 283 275 272 272 263 260 266 271 267 262 270 276 246 207 200 196 194 190 190 207 199 179 177 168 161 160 165 166
294 314 310 288 255 223 268 264 266 277 286 302 289 288 285 283 270 266 267 270 259 258 264 262 262 259 262 270 231 204 196 185 187 190 187 189 191 185 168 165 166 163 163 159
294 312 294 326 143 263 266 274 278 274 282 289 297 293 282 273 266 264 262 259 254 257 260 260 254 259 255 251 200 200 189 183 184 187 189 192 183 175 166 164 162 162 155 156
281 303 284 286 72 292 304 302 291 270 290 296 294 290 280 277 273 265 261 254 251 254 258 263 255 247 245 221 202 192 186 176 185 184 183 184 176 168 164 166 161 157 156 155
297 286 298 17 307 294 280 282 175 304 303 302 306 293 283 296 278 279 274 260 248 241 240 241 240 235 225 205 196 188 185 176 179 180 181 176 171 165 164 162 155 155 153 154
288 290 271 169 313 327 279 318 315 306 300 301 294 282 282 289 286 267 251 236 238 248 237 229 222 211 212 204 183 182 171 177 175 178 176 173 168 167 163 157 151 152 149 145
295 294 300 324 330 315 300 299 300 300 303 301 299 300 300 293 277 258 229 226 240 238 207 193 201 199 191 171 172 178 179 170 169 173 169 168 166 164 158 155 151 150 147 139
277 277 292 313 318 309 306 298 301 302 304 301 299 302 314 320 147 172 188 205 201 166 153 177 173 169 160 167 167 169 171 170 172 170 169 168 164 156 155 157 154 150 149 142
296 263 311 322 327 319 317 310 311 312 307 305 294 305 347 64 127 153 172 167 154 140 156 159 162 161 161 165 168 162 173 172 160 164 163 162 161 158 157 157 157 153 150 148
274 290 322 329 329 325 323 328 331 338 338 334 28 71 74 85 98 121 135 149 145 155 152 151 153 161 166 167 175 185 156 158 163 147 149 146 153 158 157 157 159 157 157 153
293 342 333 316 324 331 331 332 339 340 350 21 108 99 107 102 117 127 121 139 153 148 132 135 145 150 156 167 172 160 148 149 152 149 151 151 151 150 154 153 157 158 155 151
281 317 319 321 325 342 342 344 353 358 26 27 64 113 108 98 110 124 134 136 145 145 139 141 141 144 148 157 164 165 156 149 150 152 148 150 146 143 143 150 152 147 144 144
324 327 325 342 335 349 354 2 14 32 43 47 58 88 108 112 119 114 115 124 138 139 141 139 135 135 143 150 154 156 151 150 148 145 140 140 140 143 145 144 140 139 143 140
349 351 340 349 348 0 2 12 20 28 32 48 66 72 94 110 112 110 116 125 129 135 133 139 136 131 144 153 152 147 145 139 137 138 141 143 146 145 146 144 142 140 140 137
351 0 9 9 1 10 9 10 17 30 35 52 69 73 91 112 117 116 113 117 129 129 136 138 135 138 142 143 139 138 140 144 145 145 147 147 148 147 147 146 145 144 143 141
1 1 13 13 7 14 13 11 16 33 46 54 77 87 96 104 106 113 119 123 123 129 135 137 138 142 140 140 145 145 141 142 143 145 149 150 151 149 149 149 149 147 146 146
9 8 23 22 16 20 22 18 19 32 50 59 78 88 93 97 97 107 115 119 124 125 132 134 133 138 139 140 142 141 144 147 149 149 151 151 150 149 151 151 148 147 146 147
7 17 25 38 35 33 34 29 28 33 44 59 67 79 89 94 101 106 114 115 119 118 122 131 135 141 137 139 142 144 146 148 150 150 151 150 150 151 151 148 146 146 144 147
11 22 32 50 53 46 44 48 49 41 55 73 87 79 84 93 99 101 102 102 105 113 126 132 137 137 139 142 142 145 148 149 149 148 149 150 150 147 148 148 147 146 148 151
11 23 36 54 66 58 60 59 63 70 75 75 87 96 90 93 100 104 107 102 106 122 129 135 137 140 143 143 142 142 144 147 149 150 151 151 151 151 151 150 150 152 153 154
15 24 39 58 76 66 66 71 74 83 91 95 100 101 98 94 93 97 98 103 113 123 132 138 143 146 147 148 145 145 148 150 150 151 152 152 152 153 154 155 155 155 155 155
17 35 47 75 85 79 73 68 82 77 88 101 107 107 107 110 110 108 104 107 118 126 128 127 132 139 146 150 150 151 152 153 153 153 154 156 157 158 157 157 156 157 159 158
38 48 53 78 80 93 80 76 72 78 92 92 96 101 110 109 108 109 108 109 110 116 117 118 122 129 140 141 144 147 150 152 153 155 156 157 158 158 158 158 159 160 160 161
57 52 59 47 69 85 91 81 94 86 81 98 108 108 112 120 121 112 113 120 127 124 122 125 125 127 126 132 138 142 146 151 155 158 160 164 162 160 160 160 163 164 165 166
77 86 68 59 71 69 99 96 95 107 92 89 83 112 137 128 136 144 150 142 141 139 132 131 137 141 143 141 146 147 147 147 153 161 163 165 166 166 166 166 165 167 168 169
67 83 97 90 59 86 76 98 111 107 105 100 88 90 120 144 156 154 147 150 148 150 150 140 133 139 145 148 149 153 155 149 150 154 160 165 168 168 170 169 168 170 174 175
Wind_Speed_850mb
37 43 49 56 58 58 42 46 36 54 59 54 51 47 42 55 65 71 72 65 64 50 50 60 57 54 48 40 38 55 55 60 71 80 77 83 84 78 67 91 88 70 58 41
42 45 46 56 48 37 36 37 38 52 55 51 42 41 46 67 79 79 79 77 63 54 50 53 58 60 52 44 35 54 63 66 70 78 74 70 73 72 79 91 89 78 61 60
38 37 51 29 12 9 19 27 30 37 54 47 51 48 50 60 67 69 68 73 65 61 61 59 63 58 55 44 31 57 68 79 82 82 89 86 78 71 97 91 84 76 79 71
24 35 18 15 7 10 23 33 42 47 52 46 40 59 74 70 70 77 79 73 73 65 56 59 60 57 50 38 44 65 73 86 93 90 84 74 87 93 102 95 91 88 84 78
10 21 44 25 6 4 19 60 32 13 20 43 74 70 85 73 64 78 83 88 87 82 80 76 64 53 48 36 52 73 82 90 102 94 96 95 102 111 108 106 98 94 84 78
20 19 15 7 5 23 15 27 9 23 53 54 53 31 40 55 39 40 39 48 52 54 55 57 56 46 39 39 60 80 91 98 110 96 108 119 122 118 110 105 106 95 88 76
21 20 19 3 23 30 11 25 51 78 71 67 44 49 90 109 94 66 56 28 22 30 43 42 34 37 38 40 71 84 93 103 112 109 113 122 131 123 116 108 101 96 88 75
11 19 16 33 44 6 26 67 72 87 91 87 93 100 86 76 62 47 42 48 41 33 26 25 30 36 40 57 84 93 102 108 110 117 128 134 128 118 114 107 105 97 88 80
10 16 54 65 34 53 62 67 83 87 101 95 93 92 71 18 5 24 32 33 30 32 30 36 35 62 67 84 85 84 87 96 103 118 127 124 121 118 113 107 107 103 93 85
19 19 36 52 41 67 74 80 92 96 94 87 78 51 22 5 12 17 24 33 46 41 50 48 49 80 88 96 79 52 81 94 103 121 125 126 125 122 118 116 107 100 93 89
27 37 39 35 64 75 88 96 87 98 85 65 14 27 20 29 27 33 40 41 44 55 54 56 68 73 79 88 78 76 107 114 111 115 124 119 126 120 118 111 103 96 92 87
22 25 17 45 70 78 87 88 89 82 75 58 31 39 40 43 41 41 47 62 54 54 64 70 77 88 92 94 112 125 124 125 127 134 130 129 127 121 106 91 76 82 78 70
15 46 45 48 59 70 79 87 76 66 61 55 41 43 49 52 52 56 59 63 64 61 71 76 82 90 92 100 105 113 118 125 130 130 126 123 117 109 96 83 76 62 63 67
23 33 25 40 49 64 69 77 67 51 58 61 55 52 53 55 56 63 66 71 72 69 65 68 80 88 91 102 109 114 118 120 125 125 124 111 98 92 98 92 88 77 63 63
30 29 29 36 45 55 62 73 69 60 56 65 61 60 58 55 63 63 67 74 76 79 79 75 82 88 93 100 113 126 122 120 112 103 102 101 102 108 101 96 91 87 76 61
31 28 37 39 46 51 59 67 63 56 48 58 61 64 58 59 62 66 66 71 84 82 77 83 89 89 97 103 112 116 121 119 119 116 105 101 101 105 102 94 91 85 75 69
33 36 33 39 44 49 55 57 57 52 44 50 55 56 58 56 55 58 61 65 71 71 76 84 94 99 109 108 114 111 104 101 104 106 105 103 102 100 99 98 90 80 72 67
24 26 25 26 32 40 47 50 52 52 52 47 55 62 69 70 69 63 62 66 73 78 83 82 84 85 91 92 95 97 99 100 100 102 104 104 101 98 98 92 81 72 70 63
29 27 27 25 27 31 38 41 39 36 40 45 54 66 66 64 64 67 66 76 76 75 72 73 71 72 77 82 87 89 92 97 99 100 99 98 98 96 90 79 69 71 69 62
25 27 27 25 27 28 33 34 32 28 32 40 43 47 67 71 68 74 72 73 68 65 60 63 71 77 79 77 77 78 80 82 84 86 89 90 87 79 73 70 67 66 58 50
24 25 27 25 29 28 29 34 34 34 34 37 53 56 55 63 68 73 69 66 54 53 59 61 67 73 73 71 70 72 74 80 88 91 89 85 81 78 74 68 62 58 54 50
20 23 25 23 29 33 29 29 34 33 36 39 40 48 54 62 61 67 55 54 49 47 54 56 57 59 60 59 63 67 75 82 85 84 81 79 76 74 68 64 59 57 57 54
17 18 22 22 25 31 34 30 24 31 34 35 38 41 50 56 62 62 60 47 45 44 48 52 49 50 53 56 58 61 69 77 79 80 77 77 77 72 67 61 59 59 57 54
14 16 23 22 24 23 31 33 31 27 28 32 34 36 43 46 53 57 60 55 54 55 56 54 50 46 46 53 57 61 66 69 70 69 68 69 68 65 63 61 55 52 50 52
13 11 16 20 18 21 21 18 27 29 26 24 24 28 32 40 52 49 49 51 47 48 48 46 44 44 47 49 52 56 56 55 55 57 60 63 62 59 57 55 53 51 50 47
13 12 13 15 16 19 18 21 27 24 27 23 24 18 23 29 33 33 33 34 35 41 42 42 42 42 43 43 43 43 45 45 46 49 53 61 59 58 56 53 51 49 47 46
15 14 10 10 9 12 16 15 25 28 21 26 26 23 22 25 26 24 25 31 30 39 40 36 38 37 37 39 40 41 42 40 40 43 48 53 52 51 50 48 46 45 44 44
Wind_Direction_850mb
271 282 288 280 281 287 277 268 264 276 279 283 283 284 283 282 284 283 281 279 280 277 276 281 269 270 276 280 248 214 205 200 192 198 189 198 202 202 186 180 173 167 147 142
288 289 288 291 287 282 275 278 273 271 274 277 291 295 278 278 283 275 272 272 263 260 266 271 267 262 270 276 246 207 200 196 194 190 190 207 199 179 177 168 161 160 165 166
294 314 310 288 255 223 268 264 266 277 286 302 289 288 285 283 270 266 267 270 259 258 264 262 262 259 262 270 231 204 196 185 187 190 187 189 191 185 168 165 166 163 163 159
294 312 294 326 143 263 266 274 278 274 282 289 297 293 282 273 266 264 262 259 254 257 260 260 254 259 255 251 200 200 189 183 184 187 189 192 183 175 166 164 162 162 155 156
281 303 284 286 72 292 304 302 291 270 290 296 294 290 280 277 273 265 261 254 251 254 258 263 255 247 245 221 202 192 186 176 185 184 183 184 176 168 164 166 161 157 156 155
297 286 298 17 307 294 280 282 175 304 303 302 306 293 283 296 278 279 274 260 248 241 240 241 240 235 225 205 196 188 185 176 179 180 181 176 171 165 164 162 155 155 153 154
288 290 271 169 313 327 279 318 315 306 300 301 294 282 282 289 286 267 251 236 238 248 237 229 222 211 212 204 183 182 171 177 175 178 176 173 168 167 163 157 151 152 149 145
295 294 300 324 330 315 300 299 300 300 303 301 299 300 300 293 277 258 229 226 240 238 207 193 201 199 191 171 172 178 179 170 169 173 169 168 166 164 158 155 151 150 147 139
277 277 292 313 318 309 306 298 301 302 304 301 299 302 314 320 147 172 188 205 201 166 153 177 173 169 160 167 167 169 171 170 172 170 169 168 164 156 155 157 154 150 149 142
296 263 311 322 327 319 317 310 311 312 307 305 294 305 347 64 127 153 172 167 154 140 156 159 162 161 161 165 168 162 173 172 160 164 163 162 161 158 157 157 157 153 150 148
274 290 322 329 329 325 323 328 331 338 338 334 28 71 74 85 98 121 135 149 145 155 152 151 153 161 166 167 175 185 156 158 163 147 149 146 153 158 157 157 159 157 157 153
293 342 333 316 324 331 331 332 339 340 350 21 108 99 107 102 117 127 121 139 153 148 132 135 145 150 156 167 172 160 148 149 152 149 151 151 151 150 154 153 157 158 155 151
281 317 319 321 325 342 342 344 353 358 26 27 64 113 108 98 110 124 134 136 145 145 139 141 141 144 148 157 164 165 156 149 150 152 148 150 146 143 143 150 152 147 144 144
324 327 325 342 335 349 354 2 14 32 43 47 58 88 108 112 119 114 115 124 138 139 141 139 135 135 143 150 154 156 151 150 148 145 140 140 140 143 145 144 140 139 143 140
349 351 340 349 348 0 2 12 20 28 32 48 66 72 94 110 112 110 116 125 129 135 133 139 136 131 144 153 152 147 145 139 137 138 141 143 146 145 146 144 142 140 140 137
351 0 9 9 1 10 9 10 17 30 35 52 69 73 91 112 117 116 113 117 129 129 136 138 135 138 142 143 139 138 140 144 145 145 147 147 148 147 147 146 145 144 143 141
1 1 13 13 7 14 13 11 16 33 46 54 77 87 96 104 106 113 119 123 123 129 135 137 138 142 140 140 145 145 141 142 143 145 149 150 151 149 149 149 149 147 146 146
9 8 23 22 16 20 22 18 19 32 50 59 78 88 93 97 97 107 115 119 124 125 132 134 133 138 139 140 142 141 144 147 149 149 151 151 150 149 151 151 148 147 146 147
7 17 25 38 35 33 34 29 28 33 44 59 67 79 89 94 101 106 114 115 119 118 122 131 135 141 137 139 142 144 146 148 150 150 151 150 150 151 151 148 146 146 144 147
11 22 32 50 53 46 44 48 49 41 55 73 87 79 84 93 99 101 102 102 105 113 126 132 137 137 139 142 142 145 148 149 149 148 149 150 150 147 148 148 147 146 148 151
11 23 36 54 66 58 60 59 63 70 75 75 87 96 90 93 100 104 107 102 106 122 129 135 137 140 143 143 142 142 144 147 149 150 151 151 151 151 151 150 150 152 153 154
15 24 39 58 76 66 66 71 74 83 91 95 100 101 98 94 93 97 98 103 113 123 132 138 143 146 147 148 145 145 148 150 150 151 152 152 152 153 154 155 155 155 155 155
17 35 47 75 85 79 73 68 82 77 88 101 107 107 107 110 110 108 104 107 118 126 128 127 132 139 146 150 150 151 152 153 153 153 154 156 157 158 157 157 156 157 159 158
38 48 53 78 80 93 80 76 72 78 92 92 96 101 110 109 108 109 108 109 110 116 117 118 122 129 140 141 144 147 150 152 153 155 156 157 158 158 158 158 159 160 160 161
57 52 59 47 69 85 91 81 94 86 81 98 108 108 112 120 121 112 113 120 127 124 122 125 125 127 126 132 138 142 146 151 155 158 160 164 162 160 160 160 163 164 165 166
77 86 68 59 71 69 99 96 95 107 92 89 83 112 137 128 136 144 150 142 141 139 132 131 137 141 143 141 146 147 147 147 153 161 163 165 166 166 166 166 165 167 168 169
67 83 97 90 59 86 76 98 111 107 105 100 88 90 120 144 156 154 147 150 148 150 150 140 133 139 145 148 149 153 155 149 150 154 160 165 168 168 170 169 168 170 174 175